| time (UTC) | temp F | wind direction | speed knots | gust knots | rain 1hr in | rain 24hr in | rain mn in | humidity % | barometer mb |
| 20260506204535 | 88 | 327 | 0.0 | 6.1 | 0.00 | 0.00 | 0.00 | 55 | 1015.2 |
| 20260506203042 | 89 | 122 | 1.7 | 8.7 | 0.00 | 0.00 | 0.00 | 52 | 1015.3 |
| 20260506201541 | 90 | 121 | 0.9 | 5.2 | 0.00 | 0.00 | 0.00 | 50 | 1015.6 |
| 20260506200042 | 90 | 189 | 0.9 | 4.3 | 0.00 | 0.00 | 0.00 | 51 | 1015.8 |
| 20260506194535 | 90 | 319 | 0.0 | 3.5 | 0.00 | 0.00 | 0.00 | 51 | 1015.8 |
| 20260506193046 | 89 | 160 | 0.9 | 5.2 | 0.00 | 0.00 | 0.00 | 51 | 1015.9 |
| 20260506191539 | 89 | 336 | 0.0 | 6.1 | 0.00 | 0.00 | 0.00 | 52 | 1016.0 |
| 20260506190038 | 89 | 115 | 1.7 | 7.8 | 0.00 | 0.00 | 0.00 | 52 | 1016.1 |
| 20260506184539 | 89 | 300 | 0.9 | 7.0 | 0.00 | 0.00 | 0.00 | 54 | 1016.4 |
| 20260506183035 | 88 | 325 | 1.7 | 8.7 | 0.00 | 0.00 | 0.00 | 54 | 1016.6 |
| 20260506181555 | 88 | 57 | 0.9 | 6.1 | 0.00 | 0.00 | 0.00 | 57 | 1016.7 |
| 20260506180041 | 87 | 152 | 0.9 | 8.7 | 0.00 | 0.00 | 0.00 | 57 | 1016.7 |
| 20260506174540 | 86 | 159 | 2.6 | 7.0 | 0.00 | 0.00 | 0.00 | 56 | 1016.9 |
| 20260506173102 | 86 | 123 | 0.9 | 6.1 | 0.00 | 0.00 | 0.00 | 60 | 1017.2 |
| 20260506171545 | 86 | 26 | 0.9 | 6.1 | 0.00 | 0.00 | 0.00 | 60 | 1017.4 |
| 20260506170056 | 86 | 328 | 0.0 | 3.5 | 0.00 | 0.00 | 0.00 | 58 | 1017.6 |
| 20260506164540 | 85 | 154 | 0.9 | 3.5 | 0.00 | 0.00 | 0.00 | 60 | 1017.6 |
| 20260506163051 | 84 | 0 | 0.9 | 4.3 | 0.00 | 0.00 | 0.00 | 59 | 1017.7 |
| 20260506161539 | 83 | 355 | 0.9 | 5.2 | 0.00 | 0.00 | 0.00 | 64 | 1017.8 |
| 20260506160045 | 83 | 192 | 0.9 | 7.8 | 0.00 | 0.00 | 0.00 | 64 | 1017.8 |
| 20260506154604 | 82 | 53 | 1.7 | 8.7 | 0.00 | 0.00 | 0.00 | 66 | 1017.9 |
| 20260506153037 | 81 | 0 | 0.9 | 4.3 | 0.00 | 0.00 | 0.00 | 68 | 1017.7 |
| 20260506151537 | 80 | 296 | 1.7 | 8.7 | 0.00 | 0.00 | 0.00 | 72 | 1017.6 |
| 20260506150037 | 78 | 97 | 0.9 | 4.3 | 0.00 | 0.00 | 0.00 | 72 | 1017.5 |
| 20260506144550 | 78 | 189 | 0.9 | 5.2 | 0.00 | 0.00 | 0.00 | 73 | 1017.5 |
| 20260506143041 | 77 | 188 | 1.7 | 5.2 | 0.00 | 0.00 | 0.00 | 75 | 1017.3 |
| 20260506141541 | 75 | 0 | 2.6 | 8.7 | 0.00 | 0.00 | 0.00 | 75 | 1017.1 |
| 20260506140040 | 74 | 146 | 1.7 | 5.2 | 0.00 | 0.00 | 0.00 | 77 | 1017.2 |
| 20260506134535 | 74 | 291 | 1.7 | 5.2 | 0.00 | 0.00 | 0.00 | 77 | 1017.0 |
| 20260506133045 | 73 | 145 | 0.9 | 4.3 | 0.00 | 0.00 | 0.00 | 79 | 1016.9 |
| 20260506131542 | 72 | 170 | 1.7 | 5.2 | 0.00 | 0.00 | 0.00 | 80 | 1016.7 |
| 20260506130041 | 70 | 141 | 0.0 | 3.5 | 0.00 | 0.00 | 0.00 | 83 | 1016.6 |
| 20260506124539 | 69 | 0 | 0.0 | 2.6 | 0.00 | 0.00 | 0.00 | 85 | 1016.7 |
| 20260506123036 | 67 | 229 | 0.9 | 2.6 | 0.00 | 0.00 | 0.00 | 88 | 1016.5 |
| 20260506121535 | 65 | 0 | 0.0 | 0.9 | 0.00 | 0.00 | 0.00 | 92 | 1016.5 |
| 20260506120043 | 64 | 0 | 0.0 | 0.0 | 0.00 | 0.00 | 0.00 | 93 | 1016.2 |
| 20260506114546 | 63 | 0 | 0.0 | 0.0 | 0.00 | 0.00 | 0.00 | 94 | 1016.1 |
| 20260506113040 | 63 | 0 | 0.0 | 0.9 | 0.00 | 0.00 | 0.00 | 93 | 1015.7 |
| 20260506111539 | 62 | 0 | 0.0 | 0.0 | 0.00 | 0.00 | 0.00 | 93 | 1015.7 |
| 20260506110046 | 62 | 0 | 0.0 | 0.9 | 0.00 | 0.00 | 0.00 | 93 | 1015.6 |
| 20260506104607 | 62 | 0 | 0.0 | 0.9 | 0.00 | 0.00 | 0.00 | 92 | 1015.4 |
| 20260506103042 | 62 | 0 | 0.0 | 0.0 | 0.00 | 0.00 | 0.00 | 92 | 1015.3 |
| 20260506101542 | 62 | 0 | 0.0 | 0.0 | 0.00 | 0.00 | 0.00 | 91 | 1015.4 |
| 20260506100044 | 63 | 0 | 0.0 | 0.0 | 0.00 | 0.00 | 0.00 | 92 | 1015.5 |
| 20260506094538 | 63 | 0 | 0.0 | 0.0 | 0.00 | 0.01 | 0.00 | 91 | 1015.7 |
| 20260506093035 | 63 | 0 | 0.0 | 0.0 | 0.00 | 0.01 | 0.00 | 92 | 1015.5 |
| 20260506091539 | 63 | 0 | 0.0 | 0.0 | 0.00 | 0.01 | 0.00 | 92 | 1015.4 |
| 20260506090044 | 63 | 0 | 0.0 | 0.0 | 0.00 | 0.01 | 0.00 | 92 | 1015.3 |
| 20260506084540 | 63 | 0 | 0.0 | 0.0 | 0.00 | 0.01 | 0.00 | 91 | 1015.3 |
| 20260506083043 | 64 | 0 | 0.0 | 0.0 | 0.00 | 0.01 | 0.00 | 90 | 1015.6 |
| 20260506081537 | 64 | 0 | 0.0 | 0.0 | 0.00 | 0.01 | 0.00 | 91 | 1015.9 |
| 20260506073041 | 64 | 0 | 0.0 | 0.0 | 0.00 | 0.01 | 0.00 | 89 | 1015.6 |
| 20260506071540 | 64 | 0 | 0.0 | 0.0 | 0.00 | 0.01 | 0.00 | 89 | 1015.7 |
| 20260506061540 | 65 | 0 | 0.0 | 0.0 | 0.00 | 0.01 | 0.00 | 86 | 1016.0 |
| 20260506044540 | 67 | 0 | 0.0 | 0.9 | 0.00 | 0.01 | 0.00 | 81 | 1016.3 |
| 20260506043046 | 67 | 0 | 0.0 | 0.9 | 0.00 | 0.01 | 0.00 | 80 | 1016.5 |
| 20260506041538 | 67 | 0 | 0.0 | 0.9 | 0.00 | 0.01 | 0.00 | 79 | 1016.3 |
| 20260506040049 | 67 | 0 | 0.0 | 0.9 | 0.00 | 0.01 | 0.00 | 78 | 1016.4 |
| 20260506034540 | 68 | 0 | 0.0 | 0.0 | 0.00 | 0.01 | 0.01 | 77 | 1016.5 |
| 20260506033039 | 68 | 0 | 0.0 | 0.0 | 0.00 | 0.01 | 0.01 | 75 | 1016.6 |
| 20260506031536 | 69 | 0 | 0.0 | 0.0 | 0.00 | 0.01 | 0.01 | 75 | 1016.6 |
| 20260506030035 | 70 | 0 | 0.0 | 0.0 | 0.00 | 0.01 | 0.01 | 73 | 1016.5 |
| 20260506024544 | 70 | 0 | 0.0 | 0.0 | 0.00 | 0.01 | 0.01 | 72 | 1016.3 |
| 20260506023040 | 71 | 0 | 0.0 | 0.0 | 0.00 | 0.01 | 0.01 | 71 | 1016.2 |
| 20260506021549 | 71 | 0 | 0.0 | 0.0 | 0.00 | 0.01 | 0.01 | 70 | 1016.0 |
| 20260506020034 | 72 | 0 | 0.0 | 0.0 | 0.00 | 0.01 | 0.01 | 69 | 1015.8 |
| 20260506014559 | 73 | 0 | 0.0 | 0.0 | 0.00 | 0.01 | 0.01 | 67 | 1015.6 |
| 20260506013041 | 73 | 0 | 0.0 | 0.0 | 0.00 | 0.01 | 0.01 | 66 | 1015.6 |
| 20260506011540 | 74 | 0 | 0.0 | 1.7 | 0.00 | 0.01 | 0.01 | 65 | 1015.5 |
| 20260506010046 | 75 | 171 | 0.0 | 0.9 | 0.00 | 0.01 | 0.01 | 62 | 1015.3 |
| 20260506004534 | 76 | 0 | 0.0 | 2.6 | 0.00 | 0.01 | 0.01 | 61 | 1015.1 |
| 20260506003040 | 76 | 0 | 0.0 | 0.9 | 0.00 | 0.01 | 0.01 | 59 | 1014.7 |
| 20260506001536 | 78 | 0 | 0.0 | 0.9 | 0.00 | 0.01 | 0.01 | 58 | 1014.9 |
| 20260506000038 | 78 | 0 | 0.0 | 2.6 | 0.00 | 0.01 | 0.01 | 56 | 1014.7 |
| 20260505234559 | 79 | 0 | 0.0 | 1.7 | 0.00 | 0.01 | 0.01 | 56 | 1014.8 |
| 20260505233042 | 80 | 33 | 0.0 | 3.5 | 0.00 | 0.01 | 0.01 | 55 | 1014.5 |
| 20260505231537 | 81 | 0 | 0.0 | 1.7 | 0.00 | 0.01 | 0.01 | 55 | 1014.4 |
| 20260505230042 | 81 | 277 | 0.0 | 3.5 | 0.00 | 0.01 | 0.01 | 54 | 1014.5 |
| 20260505224535 | 81 | 0 | 0.0 | 2.6 | 0.00 | 0.01 | 0.01 | 53 | 1014.5 |
| 20260505223046 | 82 | 0 | 0.0 | 5.2 | 0.00 | 0.01 | 0.01 | 51 | 1014.6 |
| 20260505221541 | 84 | 275 | 0.9 | 7.0 | 0.00 | 0.01 | 0.01 | 49 | 1014.5 |
| 20260505220037 | 85 | 344 | 0.0 | 2.6 | 0.00 | 0.01 | 0.01 | 47 | 1014.5 |
| 20260505214547 | 84 | 355 | 0.0 | 5.2 | 0.00 | 0.01 | 0.01 | 47 | 1014.4 |
| 20260505213043 | 85 | 189 | 0.0 | 4.3 | 0.00 | 0.01 | 0.01 | 46 | 1014.3 |
| 20260505211545 | 86 | 151 | 0.9 | 6.1 | 0.00 | 0.01 | 0.01 | 42 | 1014.4 |
| 20260505210040 | 86 | 292 | 1.7 | 4.3 | 0.00 | 0.01 | 0.01 | 44 | 1014.5 |